This is the latest recevied weather packets stored in our database for station/object DELTON-WX. If no packets are shown the sender has not sent any weather packets the latest 10 day(s).
| Time | Temp. | Humidity | Pressure | Rain* | Wind** | Luminosity | Snow |
|---|---|---|---|---|---|---|---|
| 1777978886 | 8.89° C | 68% | 969.9 hPa | 0 mm | - | - | - |
| 1777977948 | 9.44° C | 66% | 968.8 hPa | 0 mm | - | - | - |
| 1777977066 | 9.44° C | 66% | 968.6 hPa | 0 mm | - | - | - |
| 1777976147 | 10° C | 66% | 968.6 hPa | 0 mm | - | - | - |
| 1777975285 | 10° C | 66% | 968.6 hPa | 0 mm | - | - | - |
| 1777974347 | 10° C | 77% | 968.7 hPa | 0 mm | - | - | - |
| 1777973470 | 10.56° C | 78% | 968.6 hPa | 0 mm | - | - | - |
| 1777972548 | 10.56° C | 78% | 968.5 hPa | 0 mm | - | - | - |
| 1777971688 | 10° C | 78% | 968.5 hPa | 0 mm | - | - | - |
| 1777970746 | 10° C | 74% | 968.6 hPa | 0 mm | - | - | - |
| 1777969866 | 10.56° C | 72% | 967.8 hPa | 0 mm | - | - | - |
| 1777968947 | 10.56° C | 72% | 967.8 hPa | 0 mm | - | - | - |
| 1777968079 | 11.11° C | 76% | 968.3 hPa | 0 mm | - | - | - |
| 1777967148 | 11.67° C | 82% | 967.7 hPa | 0 mm | - | - | - |
| 1777966268 | 11.67° C | 82% | 967.7 hPa | 0 mm | - | - | - |
| 1777965348 | 12.22° C | 82% | 967.7 hPa | 0 mm | - | - | - |
| 1777964481 | 12.78° C | 82% | 967.7 hPa | 0 mm | - | - | - |
| 1777963547 | 12.78° C | 82% | 968.2 hPa | 0 mm | - | - | - |
| 1777962664 | 13.33° C | 82% | 967.6 hPa | 0 mm | - | - | - |
| 1777961749 | 13.33° C | 82% | 967.6 hPa | 0 mm | - | - | - |
| 1777960893 | 13.89° C | 82% | 967.6 hPa | 0 mm | - | - | - |
| 1777959948 | 13.89° C | 78% | 968.4 hPa | 0 mm | - | - | - |
| 1777959071 | 13.89° C | 71% | 967.6 hPa | 0 mm | - | - | - |
| 1777958147 | 13.89° C | 71% | 967.6 hPa | 0 mm | - | - | - |
| 1777957280 | 15° C | 71% | 967.6 hPa | 0 mm | - | - | - |
* Rain latest hour (hover to see other rain measurements)
** Current wind speed in m/s (hover to see current wind gust speed)